Location: Hilton Head Island
(32.2163°N, 80.7526°W)
Time: 15:46:16
(UTC-05:00)

Explorer 11/Cluster Stage 4 - Pass Details

Date: 21 February 2026
Orbit: 463 x 1176 km, 28.8° (Epoch: 6 March)

Event Time Altitude Azimuth Distance (km) Brightness Sun altitude
Rises 13:40:31 0° 263° (W) 2,974 9.8 44.8°
Reaches altitude 10° 13:43:07 10° 258° (WSW) 1,949 9.1 44.6°
Maximum altitude 13:47:26 53° 182° (S) 660 8.1 44.2°
Drops below altitude 10° 13:51:08 10° 105° (ESE) 1,676 8.3 43.9°
Sets 13:53:14 0° 100° (E) 2,512 9.1 43.7°
